Location: Unspecified
(40.9447°N, 78.9903°W)
Time: 00:28:05
(UTC-04:00)

Okean 3 - Pass Details

Date: 31 July 2021
Orbit: 574 x 601 km, 82.5° (Epoch: 19 September)

Event Time Altitude Azimuth Distance (km) Brightness Sun altitude
Rises 02:59:57 0° 335° (NNW) 2,845 7.5 -26.7°
Reaches altitude 10° 03:02:42 10° 317° (NW) 1,933 6.3 -26.5°
Enters shadow 03:03:42 14° 306° (NW) 1,676 5.8 -26.4°
